Location: Newark
(50.4348°N, 30.5552°E)
Time: 21:52:43
(UTC+00:00)

Altair - Pass Details

Date: 20 January 2020
Orbit: 1502 x 1682 km, 47.2° (Epoch: 19 February)

Event Time Altitude Azimuth Distance (km) Brightness Sun altitude
Rises 14:06:31 0° 288° (WNW) 4,930 10.7 2.2°
Reaches altitude 10° 14:09:59 10° 281° (W) 3,927 10.4 1.7°
Maximum altitude 14:18:52 38° 219° (SW) 2,331 9.4 0.6°
Drops below altitude 10° 14:27:30 10° 156° (SSE) 3,804 9.7 -0.6°
Sets 14:30:50 0° 148° (SSE) 4,761 10.1 -1.0°
